Location: La Ronge
(55.1000°N, 105.3000°W)
Time: 15:44:49
(UTC-06:00)

Daily predictions for brighter satellites

Satellite Brightness Start Highest point End
(mag) Time Altitude Azimuth Time Altitude Azimuth Time Altitude Azimuth
Cosmos 2263 Rocket 2.8 20:51:37 10° NW 20:57:13 58° WSW 21:02:46 10° SSE
Cosmos 1300 Rocket 3.7 20:54:45 10° S 20:58:56 54° E 21:03:10 10° NNE
Cosmos 2278 Rocket 3.4 20:55:38 10° NNW 21:00:44 32° NE 21:05:47 10° E
YAOGAN 6 2.5 20:58:53 10° SSE 21:02:26 86° ENE 21:05:58 10° NNW
Cosmos 1844 Rocket 3.1 20:58:40 10° NNW 21:04:17 56° NE 21:09:52 10° SE
NOSS 3-1 (C) 3.8 20:58:20 10° WSW 21:04:25 76° NW 21:11:27 10° NE
Okean 1-7 Rocket 3.7 21:00:03 10° N 21:04:30 61° ENE 21:09:00 10° SSE
ERBS 2.4 21:01:54 10° SW 21:05:19 58° SSE 21:08:45 10° ENE
Abrixas rocket 3.6 21:04:18 10° WSW 21:07:03 25° S 21:09:49 10° SE
Cosmos 2322 Rocket 2.3 21:02:41 10° SSW 21:08:17 61° ESE 21:13:55 10° NE
Cosmos 1515 4.0 21:04:47 10° N 21:08:31 50° ENE 21:12:14 10° SSE
Molniya-1 3.2 21:06:49 10° NW 21:09:07 80° SSW 21:12:19 10° SE
USA 215 3.4 21:04:11 10° ENE 21:10:47 85° NNW 21:17:22 10° W
Meteor 1-11 Rocket 3.8 21:04:59 10° S 21:10:47 82° ESE 21:16:29 10° NNE
NOSS 2-3 (C) 4.4 21:08:52 10° SSW 21:13:29 42° SE 21:18:59 10° NE
Resurs 01 Rocket 3.5 21:09:37 10° SSW 21:13:37 32° W 21:17:39 10° NNW
SPOT 1/Viking Rocket 4.3 21:10:58 10° SE 21:15:46 38° ENE 21:20:34 10° N
NOSS 3-2 (A) 4.0 21:10:40 10° NW 21:17:51 82° NE 21:25:38 11° SE
BREEZE-M DEB 4.5 21:06:41 10° W 21:19:03 50° SSW 21:22:33 12° SE
Cosmos 1975 4.2 21:16:26 10° SE 21:19:27 21° E 21:22:29 10° NE
Cosmos 2266 Rocket 3.9 21:13:52 10° S 21:19:52 74° E 21:25:56 10° NNE
Cosmos 2315 Rocket 4.0 21:13:36 10° N 21:19:53 82° ENE 21:26:11 10° SSE
USA 238 DEB 4.0 21:13:06 10° NW 21:20:09 71° SW 21:27:15 10° SE
USA 238 4.0 21:13:12 10° NW 21:20:15 72° SW 21:27:21 10° SE
SL-16 R/B 2.2 21:14:52 10° SSW 21:20:30 72° ESE 21:26:11 10° NE
Cosmos 2151 Rocket 4.2 21:16:27 10° SSW 21:20:48 62° WNW 21:25:12 10° N
Terra 3.3 21:17:07 10° ESE 21:20:51 23° NE 21:24:36 10° N
Cosmos 724 4.4 21:15:19 10° NW 21:21:18 71° NE 21:26:49 12° SE
Meteor 1-29 3.6 21:20:30 10° NNE 21:23:42 35° E 21:26:52 10° SSE
Helios 1A 3.4 21:20:05 10° S 21:24:18 66° WSW 21:28:34 10° NNW
MetOp-B 4.2 21:20:15 10° SSE 21:25:35 72° ENE 21:30:57 10° NNW
Cosmos 2219 Rocket 3.9 21:24:25 11° ESE 21:26:38 14° E 21:29:18 10° ENE
H-2A R/B 4.1 21:24:30 10° E 21:27:10 16° NE 21:29:54 10° NNE
PEGASUS R/B 4.1 21:24:31 10° NNE 21:27:23 84° ESE 21:32:05 10° SSW
Cosmos 1500 4.0 21:27:16 10° SSE 21:30:46 33° E 21:34:16 10° NNE
Cosmos 2322 4.2 21:26:58 10° S 21:32:05 36° ESE 21:37:14 10° NE
ERS-1 Rocket 3.0 21:27:33 10° SSE 21:32:36 89° ENE 21:37:39 10° NNW
USA 245 3.7 21:28:30 10° SSE 21:33:10 58° ENE 21:36:54 10° N
ATLAS 3B R/B 3.1 21:28:05 10° NW 21:34:44 55° SW 21:41:05 10° SSE
Cosmos 1939 Rocket 4.5 21:33:20 10° SSW 21:36:57 33° W 21:40:33 10° NNW
Cosmos 1536 3.2 21:34:10 10° SSW 21:38:13 68° WNW 21:42:18 10° N
Cosmos 2360 Rocket 2.4 21:35:33 10° S 21:40:56 48° ESE 21:46:19 10° NE
Cosmos 1980 Rocket 3.5 21:36:57 10° WSW 21:42:19 44° NW 21:47:42 10° NNE
Cosmos 1844 3.8 21:37:17 10° NNW 21:42:59 75° NE 21:47:46 15° SE
COSMOS 2428 3.6 21:38:31 10° SSE 21:43:14 27° ESE 21:47:57 10° NE
Cosmos 1892 Rocket 3.6 21:39:10 10° N 21:43:38 72° ENE 21:47:37 13° SSE
Cosmos 1238 Rocket 4.1 21:41:30 10° N 21:48:19 82° E 21:54:46 10° SSE
ATLAS CENTAUR R/B 2.8 21:46:42 10° NW 21:49:54 27° NNE 21:53:07 10° E
SAR-Lupe-4 4.2 21:47:13 10° S 21:50:44 56° WSW 21:54:19 10° NNW
CZ-4B DEB 3.9 21:48:10 10° SSW 21:50:51 36° W 21:53:34 10° NNW
NOSS 2-3 (D) 4.0 21:48:18 10° SW 21:53:11 68° SE 21:59:11 10° NE
H-2A R/B 2.0 21:49:01 14° SSE 21:53:20 71° ENE 21:58:16 10° NNW
Meteor 1-5 Rocket 4.2 21:49:22 10° SSW 21:54:41 77° WNW 22:00:02 10° NNE
Cosmos 1437 Rocket 4.0 21:54:37 19° SE 21:56:11 25° E 21:59:26 10° NE
Cosmos 2333 Rocket 3.6 21:55:01 16° ESE 21:56:39 18° E 22:00:24 10° ENE
NOSS 3-2 (C) 4.0 21:49:47 10° NW 21:57:01 86° SW 22:03:28 17° SE
EXPRESS MD2 4.1 21:53:59 10° SW 21:57:08 38° SSE 22:02:58 10° E
Cosmos 1486 Rocket 4.3 21:56:50 10° NNW 22:02:03 65° WSW 22:06:31 14° S
Helios 1B rocket 2.6 21:58:51 10° NNE 22:02:58 76° WNW 22:07:04 10° SSW
Cosmos 1544 Rocket 3.9 22:01:28 16° SSE 22:04:51 49° E 22:09:10 10° NNE
COSMOS 2455 3.7 21:59:12 10° NW 22:04:59 43° NNE 22:10:05 13° E
Cosmos 405 3.1 22:02:28 16° S 22:05:10 55° E 22:08:43 10° NNE
Cosmos 1302 Rocket 4.3 22:00:39 10° S 22:05:40 45° ESE 22:10:42 10° NE
Cosmos 2369 Rocket 4.4 22:02:24 10° NNW 22:06:31 20° NNE 22:10:38 10° ENE
GP-B 4.0 22:03:55 10° NNE 22:07:57 32° E 22:10:00 22° SE
Cosmos 968 Rocket 4.1 22:04:22 10° NNW 22:09:18 43° NE 22:12:34 19° ESE
IGS 5A 4.0 22:09:44 23° SE 22:12:00 46° ENE 22:16:01 10° N
Cosmos 2237 Rocket 3.6 22:12:24 17° ESE 22:13:10 17° E 22:16:41 10° ENE
Cosmos 1110 Rocket 3.9 22:09:11 10° SSW 22:14:22 87° ESE 22:19:37 10° NNE
Cosmos 1666 3.6 22:14:52 26° SE 22:16:06 32° E 22:19:33 10° NNE
SPOT 5 3.0 22:12:52 15° S 22:16:52 67° WSW 22:21:26 10° NNW
Cosmos 1455 Rocket 3.2 22:14:10 19° SSE 22:17:14 56° E 22:21:38 10° NNE
Cosmos 1066 Rocket 4.4 22:13:01 10° NNW 22:18:23 67° W 22:23:11 13° S
Aureole 2 Rocket 3.6 22:20:25 23° E 22:20:25 23° E 22:22:33 10° NE
ATLAS 2AS CENTAUR R/B 3.0 22:12:20 10° SW 22:20:14 78° SE 22:28:24 10° NE
Cosmos 1842 3.7 22:16:51 10° N 22:20:40 46° ENE 22:22:20 28° SE
Lacrosse 5 1.9 22:16:47 10° SW 22:21:44 54° SSE 22:26:41 10° ENE
SeaSat 1 2.9 22:17:37 10° NNE 22:22:32 65° NW 22:27:25 10° SW
CENTAUR R/B 3.1 22:16:38 10° NW 22:24:07 75° NE 22:30:30 19° ESE
Cosmos 1331 Rocket 4.0 22:22:08 10° SSW 22:27:21 84° WNW 22:32:40 10° NNE
ATLAS CENTAUR R/B 4.3 22:06:55 10° W 22:27:24 83° N 22:33:13 13° E
NOSS 2-3 (E) 4.3 22:25:08 10° SW 22:30:12 80° NW 22:36:28 10° NE
NOSS 3-4 (A) 4.3 22:28:46 23° SSE 22:31:04 28° ESE 22:36:30 10° ENE
NOSS 3-4 (C) 4.3 22:28:58 23° SSE 22:31:11 28° ESE 22:36:36 10° ENE
SL-08 RB Rocket 4.4 22:27:46 15° S 22:31:27 50° W 22:35:52 10° NNW
Cosmos 2297 4.2 22:26:56 10° NNW 22:32:29 51° NE 22:35:58 22° ESE
Timation 1 Rocket 4.3 22:26:43 10° NW 22:32:44 85° WSW 22:36:23 25° SSE
Nadezhda 1 Rocket 4.0 22:26:44 10° NNW 22:33:03 86° W 22:37:46 19° S
Cosmos 1743 2.7 22:31:23 30° SSE 22:33:04 60° E 22:36:51 10° NNE
ARGOS 4.1 22:31:25 10° S 22:36:26 43° W 22:41:34 10° NNW
Cosmos 1354 Rocket 4.4 22:34:35 10° NNW 22:39:51 60° WSW 22:43:07 23° S
Meteor 1-21 4.2 22:34:20 10° NNW 22:40:00 87° W 22:43:32 24° S
DMSP B5D2-2 4.2 22:35:27 10° NNE 22:40:40 57° ESE 22:43:42 25° S
ERBS 2.7 22:38:32 10° W 22:42:01 64° N 22:44:48 15° ENE
Landsat 7 4.0 22:39:58 24° S 22:42:51 71° WSW 22:47:38 10° NNW
Abrixas rocket 4.5 22:41:11 10° WSW 22:42:28 14° SW 22:42:28 14° SW
Cosmos 2278 Rocket 2.2 22:39:42 10° NW 22:45:25 79° WSW 22:48:29 28° SSE
PSLV R/B 4.1 22:45:39 29° ENE 22:45:39 29° ENE 22:48:01 10° N
Cosmos 1184 Rocket 4.1 22:43:18 10° N 22:46:11 26° ENE 22:46:36 26° E
Cosmos 1844 Rocket 3.8 22:42:50 10° NW 22:48:02 38° WSW 22:51:49 17° SSW
CARTOSAT-1 3.6 22:47:41 31° S 22:49:42 80° WSW 22:54:04 10° NNW
ARGOS Delta rocket 4.2 22:45:40 10° NNE 22:49:59 42° E 22:51:21 33° SE
Cosmos 2181 Rocket 4.2 22:45:34 10° N 22:52:00 66° ENE 22:55:28 29° SSE
Cosmos 2322 Rocket 3.7 22:47:22 10° WSW 22:52:41 39° NW 22:58:00 10° NNE
ALOS 2 4.4 22:51:24 17° E 22:53:13 21° ENE 22:56:33 10° N
USA 215 3.4 22:47:12 10° E 22:53:46 78° N 23:00:20 10° WNW
Cosmos 1602 Rocket 3.7 22:50:39 10° NNW 22:54:59 68° W 22:56:58 31° S
SPOT 1/Viking Rocket 4.4 22:51:20 17° SSW 22:55:08 45° W 23:00:10 10° NNW
Cosmos 1975 3.6 22:52:11 12° SSW 22:55:40 49° WNW 22:59:35 10° N
Cosmos 1818 3.6 22:50:42 10° SSW 22:56:00 55° SE 23:01:19 10° NE
Terra 1.9 22:55:49 29° S 22:58:12 71° WSW 23:02:59 10° NNW
Cosmos 1709 Rocket 4.2 22:55:20 29° SSE 22:58:24 55° E 23:04:31 10° NNE
Cosmos 2237 4.2 22:53:09 10° SW 22:58:53 84° NW 23:04:38 10° NNE
Nimbus 7 Rocket 4.3 22:53:15 10° NNE 22:59:09 83° ESE 23:03:42 18° SSW
Cosmos 1953 Rocket 4.2 22:57:01 10° N 23:01:22 45° ENE 23:02:41 35° ESE
H-2A R/B 2.0 23:00:58 40° SSE 23:02:30 80° ENE 23:06:59 10° NNW
USA 81 4.0 22:57:26 10° N 23:02:46 79° E 23:05:09 34° SSE
CZ-2C R/B 4.1 22:59:32 10° NE 23:03:32 20° E 23:04:26 20° E
SL-16 R/B 3.9 22:59:57 10° WSW 23:05:06 34° NW 23:10:17 10° NNE
BREEZE M DEB (TANK) 4.0 23:04:47 10° W 23:08:43 25° SW 23:08:43 25° SW
CZ-2C R/B 3.6 23:07:29 30° ESE 23:09:16 41° ENE 23:13:51 10° N
Cosmos 2219 Rocket 2.2 23:06:05 24° S 23:09:31 63° ESE 23:15:07 10° NE
Meteor 2-9 Rocket 4.2 23:09:28 31° S 23:12:12 68° E 23:17:48 10° NNE
Cosmos 1777 Rocket 4.2 23:09:14 10° NNW 23:14:29 63° ENE 23:16:36 35° SE
Cosmos 2322 4.3 23:10:31 10° SW 23:16:06 57° NW 23:21:44 10° NNE
deb Chang Zheng 4 4.0 23:17:03 10° NNE 23:21:17 44° E 23:21:45 43° ESE
SL-16 R/B 3.4 23:21:36 24° ESE 23:21:46 24° ESE 23:26:13 10° NE
DNEPR-1 R/B 3.7 23:19:52 10° NW 23:24:09 64° SW 23:25:15 47° S
Cosmos 2360 Rocket 3.3 23:19:38 10° WSW 23:25:02 45° NW 23:30:27 10° NNE
Meteor 2-5 Rocket 4.0 23:19:56 10° N 23:25:47 60° ENE 23:28:09 36° SE
Cosmos 374 Rocket 4.4 23:21:51 10° NW 23:26:21 73° NE 23:27:20 48° ESE
COSMOS 2428 2.9 23:21:17 10° SW 23:27:02 74° NW 23:32:48 10° NNE
Cosmos 1606 Rocket 4.0 23:27:06 42° ESE 23:27:36 44° E 23:31:52 10° NNE
Cosmos 1943 Rocket 3.9 23:23:31 10° NNW 23:28:10 26° NNE 23:32:47 10° E
Cosmos 1378 3.5 23:24:42 10° N 23:28:22 48° ENE 23:28:37 47° E
ATLAS CENTAUR R/B 0.9 23:25:35 10° NW 23:29:17 84° SW 23:29:33 75° SSE
Spot 4 3.9 23:29:38 41° S 23:31:13 69° WSW 23:36:01 10° NNW
Cosmos 1437 Rocket 3.9 23:30:01 21° SW 23:32:19 41° WNW 23:36:05 10° N
H-2A R/B 3.9 23:29:40 11° SW 23:33:16 22° W 23:37:07 10° NW
Meteor 1-4 Rocket 2.5 23:35:13 73° S 23:35:33 85° E 23:39:23 10° NNE
CZ-4C R/B 2.8 23:35:54 83° S 23:36:01 88° WSW 23:39:32 10° NNW
NOSS 0 Rocket 3.9 23:35:52 30° SSW 23:39:02 69° ESE 23:45:15 10° NE
Cosmos 2333 Rocket 2.1 23:36:58 28° SSW 23:40:06 81° ESE 23:45:47 10° NE
Cosmos 1825 Rocket 3.7 23:37:43 10° NNW 23:42:01 63° W 23:42:57 49° SSW
GP-B 4.3 23:41:13 10° NNW 23:45:20 37° W 23:47:27 23° SW
RESURS DK-1 2.9 23:48:12 43° E 23:48:12 43° E 23:51:39 10° NE
Cosmos 1707 2.5 23:44:08 10° NNW 23:48:01 88° E 23:48:14 79° SSE
Meteor 1-15 Rocket 4.3 23:46:22 39° S 23:48:44 83° ESE 23:54:43 10° NNE
Cosmos 1992 Rocket 4.0 23:46:40 32° SSW 23:49:08 84° WNW 23:54:24 10° NNE
Cosmos 2228 3.6 23:49:49 41° E 23:49:59 42° E 23:54:09 10° NNE
Cosmos 968 Rocket 4.2 23:46:20 10° NW 23:51:07 41° WSW 23:52:34 33° SW
COSMOS 2455 2.9 23:45:17 10° NW 23:51:17 67° SW 23:53:12 43° S
Cosmos 1666 4.4 23:49:48 19° WSW 23:51:45 30° WNW 23:55:15 10° N
Cosmos 2369 Rocket 3.1 23:46:34 10° NNW 23:52:04 44° NE 23:55:12 24° ESE
CZ-4 R/B 3.7 23:47:43 10° NNE 23:52:31 88° ESE 23:53:52 48° SSW
Cosmos 389 Rocket 3.8 23:54:15 30° ENE 23:54:15 30° ENE 23:56:52 10° NNE
Cosmos 2058 Rocket 3.3 23:54:16 49° ESE 23:54:30 49° E 23:58:45 10° NNE
Aureole 2 Rocket 3.8 23:53:55 26° W 23:54:58 33° NW 23:57:52 10° NNE
